This is the latest recevied weather packets stored in our database for station/object W7TTE. If no packets are shown the sender has not sent any weather packets the latest 10 day(s).
| Time | Temp. | Humidity | Pressure | Rain* | Wind** | Luminosity | Snow |
|---|---|---|---|---|---|---|---|
| 1777656674 | 26.11° C | 33% | 1015 hPa | 0 mm | - | 683 W/m² | - |
| 1777656369 | 26.11° C | 33% | 1015 hPa | 0 mm | - | 672 W/m² | - |
| 1777656064 | 26.67° C | 34% | 1015 hPa | 0 mm | - | 661 W/m² | - |
| 1777655761 | 26.11° C | 33% | 1015 hPa | 0 mm | - | 651 W/m² | - |
| 1777655458 | 26.11° C | 35% | 1015 hPa | 0 mm | - | 639 W/m² | - |
| 1777655155 | 26.11° C | 34% | 1014.9 hPa | 0 mm | - | 627 W/m² | - |
| 1777654852 | 26.11° C | 33% | 1014.9 hPa | 0 mm | - | 615 W/m² | - |
| 1777654549 | 26.11° C | 33% | 1015 hPa | 0 mm | - | 604 W/m² | - |
| 1777654247 | 26.11° C | 34% | 1015.2 hPa | 0 mm | - | 592 W/m² | - |
| 1777653944 | 25.56° C | 34% | 1014.9 hPa | 0 mm | - | 578 W/m² | - |
| 1777653641 | 26.11° C | 33% | 1014.9 hPa | 0 mm | - | 566 W/m² | - |
| 1777653338 | 25.56° C | 33% | 1014.8 hPa | 0 mm | - | 555 W/m² | - |
| 1777653034 | 25.56° C | 34% | 1015.1 hPa | 0 mm | - | 541 W/m² | - |
| 1777652731 | 25° C | 35% | 1015.1 hPa | 0 mm | - | 526 W/m² | - |
| 1777652427 | 25.56° C | 35% | 1014.9 hPa | 0 mm | - | 512 W/m² | - |
| 1777652125 | 25° C | 35% | 1014.9 hPa | 0 mm | - | 499 W/m² | - |
| 1777651821 | 24.44° C | 37% | 1015 hPa | 0 mm | - | 485 W/m² | - |
| 1777651519 | 24.44° C | 37% | 1015 hPa | 0 mm | - | 469 W/m² | - |
| 1777651215 | 24.44° C | 38% | 1014.9 hPa | 0 mm | - | 453 W/m² | - |
| 1777650912 | 23.89° C | 38% | 1015 hPa | 0 mm | - | 439 W/m² | - |
| 1777650609 | 23.89° C | 38% | 1014.9 hPa | 0 mm | - | 425 W/m² | - |
| 1777650306 | 23.89° C | 39% | 1014.7 hPa | 0 mm | - | 408 W/m² | - |
| 1777650003 | 23.89° C | 39% | 1014.8 hPa | 0 mm | - | 392 W/m² | - |
| 1777649701 | 23.89° C | 38% | 1014.7 hPa | 0 mm | - | 377 W/m² | - |
| 1777649396 | 23.33° C | 39% | 1014.8 hPa | 0 mm | - | 361 W/m² | - |
* Rain latest hour (hover to see other rain measurements)
** Current wind speed in m/s (hover to see current wind gust speed)